TimeMDT,TemperatureF,Dew PointF,Humidity,Sea Level PressureIn,VisibilityMPH,Wind Direction,Wind SpeedMPH,Gust SpeedMPH,PrecipitationIn,Events,Conditions,WindDirDegrees,DateUTC
12:51 AM,54.0,35.1,49,29.73,10.0,West,3.5,-,N/A,,Clear,280,2013-04-28 06:51:00
1:51 AM,54.0,33.1,45,29.74,10.0,West,6.9,-,N/A,,Partly Cloudy,270,2013-04-28 07:51:00
2:51 AM,55.9,30.0,37,29.75,10.0,NW,11.5,18.4,N/A,,Clear,310,2013-04-28 08:51:00
3:51 AM,55.0,30.0,38,29.77,10.0,NNW,13.8,-,N/A,,Mostly Cloudy,330,2013-04-28 09:51:00
4:51 AM,53.1,28.9,40,29.78,10.0,NW,13.8,-,N/A,,Partly Cloudy,320,2013-04-28 10:51:00
5:51 AM,53.1,30.0,41,29.80,10.0,NW,15.0,-,N/A,,Clear,320,2013-04-28 11:51:00
6:51 AM,51.1,32.0,48,29.82,10.0,WNW,10.4,-,N/A,,Clear,290,2013-04-28 12:51:00
7:51 AM,57.0,32.0,39,29.84,10.0,NW,15.0,19.6,N/A,,Scattered Clouds,320,2013-04-28 13:51:00
8:51 AM,57.0,30.9,37,29.85,10.0,NW,18.4,31.1,N/A,,Clear,320,2013-04-28 14:51:00
9:51 AM,60.1,32.0,35,29.86,10.0,NW,21.9,-,N/A,,Clear,320,2013-04-28 15:51:00
10:51 AM,61.0,32.0,34,29.88,10.0,NW,18.4,28.8,N/A,,Clear,310,2013-04-28 16:51:00
11:51 AM,61.0,32.0,34,29.88,10.0,NW,18.4,-,N/A,,Clear,320,2013-04-28 17:51:00
12:51 PM,62.1,32.0,32,29.89,10.0,WNW,18.4,24.2,N/A,,Partly Cloudy,300,2013-04-28 18:51:00
1:51 PM,60.1,30.0,32,29.89,10.0,NNW,11.5,18.4,N/A,,Clear,330,2013-04-28 19:51:00
2:51 PM,60.1,28.0,30,29.89,10.0,NNW,10.4,-,N/A,,Clear,330,2013-04-28 20:51:00
3:51 PM,62.1,27.0,26,29.88,10.0,NNW,11.5,-,N/A,,Clear,330,2013-04-28 21:51:00
4:51 PM,60.1,24.1,25,29.88,10.0,Calm,Calm,-,N/A,,Clear,0,2013-04-28 22:51:00
5:51 PM,62.1,23.0,22,29.87,10.0,Calm,Calm,-,N/A,,Clear,0,2013-04-28 23:51:00
6:51 PM,60.1,24.1,25,29.86,10.0,West,3.5,-,N/A,,Clear,260,2013-04-29 00:51:00
7:51 PM,55.0,27.0,34,29.86,10.0,South,3.5,-,N/A,,Clear,190,2013-04-29 01:51:00
8:51 PM,46.9,28.9,50,29.87,10.0,South,6.9,-,N/A,,Clear,180,2013-04-29 02:51:00
9:51 PM,43.0,28.9,58,29.86,10.0,SE,4.6,-,N/A,,Clear,130,2013-04-29 03:51:00
10:51 PM,45.0,32.0,60,29.84,10.0,South,10.4,-,N/A,,Clear,190,2013-04-29 04:51:00
11:51 PM,44.1,35.1,71,29.80,10.0,South,10.4,-,N/A,,Clear,190,2013-04-29 05:51:00